GFSGBSN_250_spd_129.txt.gz
Wind_Speed
79 77 78 77 73 75 77 74 72 72 72 69 69 71 70 69 70 71 66 66 65 63 61 62 54 47 49 51 49 46 42 37 39 39 40 45 46 46 49 52 53 55 58 58 59 58 58
76 78 80 83 80 80 78 75 76 77 78 75 75 71 70 71 68 66 65 66 60 57 56 59 56 47 47 52 48 46 46 45 43 44 45 46 45 46 47 50 51 52 54 55 58 57 58
78 76 79 82 82 82 80 77 78 80 78 78 75 74 74 83 77 75 66 64 68 66 62 53 52 48 48 51 50 49 50 50 50 51 50 50 50 49 49 51 54 57 56 60 61 61 65
87 88 84 85 83 83 82 84 83 86 84 79 80 80 82 80 81 77 75 71 70 73 72 63 55 54 52 54 57 49 51 52 55 57 58 57 57 57 59 59 62 65 67 69 68 69 73
94 89 88 91 91 89 90 89 88 90 86 83 83 83 82 81 85 83 84 80 77 78 77 78 68 58 54 62 59 57 55 56 56 57 59 62 61 59 60 64 68 71 71 75 78 80 80
98 95 93 89 95 95 91 93 90 89 87 86 84 86 87 86 86 86 85 85 85 86 84 83 77 71 59 64 65 66 63 63 63 64 66 69 69 71 72 74 75 78 79 82 82 86 84
101 99 99 101 97 97 96 98 93 89 89 88 87 86 90 90 89 94 94 93 95 91 86 87 85 83 69 68 70 70 73 74 72 68 70 71 74 76 79 77 78 80 79 83 87 85 83
103 106 101 104 102 102 100 102 100 95 94 92 94 95 96 95 96 95 97 99 99 95 91 89 90 83 77 70 74 75 77 77 80 80 79 79 78 81 82 81 83 83 85 84 84 85 85
109 111 112 102 104 103 105 105 106 106 104 102 100 100 101 104 104 103 100 100 98 97 93 86 86 84 80 77 73 74 78 77 78 80 81 84 84 85 85 87 89 91 89 90 95 96 94
110 109 114 113 111 105 107 108 110 105 107 107 109 108 110 111 112 108 107 102 102 94 101 95 88 87 83 84 79 76 80 80 82 84 81 81 84 87 89 91 91 94 91 90 91 91 91
119 119 116 117 118 123 114 114 113 111 113 116 117 117 117 115 122 117 113 113 107 97 111 101 93 96 85 87 84 79 80 82 84 83 84 84 86 88 90 93 92 90 87 88 89 88 88
124 129 122 124 124 128 128 124 122 122 120 123 125 126 124 123 122 122 120 115 112 107 114 105 101 98 92 91 87 82 81 85 84 84 81 82 83 85 88 89 89 88 89 90 87 85 88
126 125 127 124 127 130 126 120 122 126 129 131 127 126 129 135 132 129 127 124 118 117 115 109 103 93 95 96 85 85 89 87 86 84 83 84 86 85 85 87 87 88 91 88 83 87 81
120 121 119 121 119 124 124 117 122 125 127 130 124 122 129 127 127 126 122 121 121 107 110 105 99 101 99 90 85 83 87 96 89 87 87 89 86 86 86 89 88 87 85 82 83 84 78
110 108 105 104 105 107 102 106 107 111 111 112 109 107 116 120 111 110 108 115 104 105 106 103 102 103 102 89 81 82 91 94 92 90 90 92 89 89 89 87 86 86 78 77 80 79 71
89 86 85 85 85 83 79 79 80 82 87 89 90 94 91 89 86 91 92 89 92 92 87 95 99 102 101 93 87 85 88 91 92 88 93 95 93 89 86 84 81 74 71 74 78 71 66
75 71 70 73 75 65 66 66 67 68 67 68 72 72 64 59 59 61 59 61 66 66 64 67 75 85 86 84 88 88 89 92 93 90 91 94 90 85 82 79 71 69 69 74 69 61 56
63 62 58 62 63 56 56 57 58 58 56 57 56 53 53 56 55 49 52 57 56 55 55 57 62 65 68 78 85 85 87 89 86 90 90 87 83 79 78 65 65 62 66 71 59 55 47
58 53 53 52 52 49 50 51 50 48 48 46 48 47 50 48 44 46 48 47 45 45 48 50 46 47 51 54 63 73 75 76 83 82 82 78 76 72 61 60 55 59 66 63 52 46 39
50 49 47 47 46 46 47 46 40 39 40 39 37 33 31 35 39 40 34 26 28 31 30 34 41 45 39 35 39 46 54 67 70 68 68 65 61 55 50 50 53 60 64 57 50 39 33
46 45 46 47 45 45 41 38 34 32 30 27 25 26 33 33 35 33 30 22 19 19 22 21 25 34 42 47 50 51 52 54 57 55 52 48 46 41 47 52 57 60 59 53 42 34 26
44 46 48 48 47 47 40 39 33 25 22 20 23 26 31 35 30 30 29 24 21 21 26 32 35 35 36 37 37 37 40 43 44 42 40 35 38 42 49 53 56 59 56 51 36 30 23
48 50 52 52 52 48 45 40 35 28 28 27 24 31 31 33 35 31 27 23 25 26 29 33 34 35 37 39 38 38 38 39 40 39 32 36 41 46 49 53 55 54 52 43 35 28 24
53 55 58 56 56 51 46 43 36 32 31 32 31 34 32 28 31 32 27 23 24 27 30 29 30 31 38 41 42 40 38 39 34 29 35 40 45 46 49 50 52 51 45 37 34 28 26
57 61 62 61 57 54 52 46 39 35 30 34 35 33 29 25 29 31 31 27 23 25 28 29 31 37 39 43 41 38 37 32 28 33 38 44 46 47 47 48 48 49 39 33 34 31 28
59 66 66 66 62 62 56 47 45 40 33 33 36 34 31 33 29 27 29 28 26 32 31 34 34 36 38 42 39 37 31 27 29 35 43 45 48 47 47 47 47 46 36 34 33 33 32
60 69 70 72 67 65 60 53 47 41 36 32 33 36 27 28 30 29 30 27 26 27 35 40 37 36 40 39 35 30 27 27 34 42 46 48 49 49 47 48 46 41 36 35 33 35 37
63 73 76 73 69 64 61 57 51 40 36 33 35 33 29 22 34 34 34 32 32 31 29 33 38 38 35 36 34 29 26 31 41 45 48 51 51 50 48 49 46 40 38 36 37 34 38
65 75 78 77 73 67 64 59 52 43 41 34 34 30 27 26 29 33 33 32 34 36 35 33 34 34 35 33 30 27 28 39 43 48 52 54 53 51 48 48 44 40 38 37 38 39 37

GFSGBSN_250_spd_132.txt.gz
Wind_Speed
72 66 65 69 73 74 73 71 70 68 68 70 70 69 72 72 67 67 70 71 69 64 63 63 63 60 54 47 48 35 41 42 42 40 41 41 43 44 44 45 47 53 60 62 61 63 64
79 79 80 79 76 73 71 69 68 70 70 71 73 69 66 70 73 72 70 73 71 71 67 69 67 62 61 54 48 38 36 42 43 42 42 44 44 48 47 48 50 53 54 58 61 62 63
85 87 88 85 80 77 73 69 68 67 67 72 74 76 74 71 74 77 76 73 73 70 74 71 69 66 67 64 53 45 41 44 49 47 47 47 49 50 51 52 52 55 56 56 58 58 59
93 91 91 91 86 80 77 77 73 72 77 74 76 76 76 77 76 80 76 77 77 75 77 72 71 70 70 64 64 58 48 50 53 53 51 53 54 57 57 57 58 57 56 55 57 59 60
90 93 93 93 86 83 78 78 81 83 81 79 79 81 86 85 85 86 82 78 78 75 73 73 72 69 69 70 69 67 69 51 57 58 58 55 56 56 61 63 64 66 65 66 66 68 68
83 89 92 90 88 87 84 81 85 87 86 85 84 84 88 89 87 85 81 79 79 78 77 74 76 74 73 70 73 74 69 68 55 63 66 67 65 65 63 60 63 68 71 70 69 69 72
90 91 89 95 89 93 94 93 93 96 96 90 92 95 91 90 89 86 83 82 79 79 80 82 82 79 79 78 78 78 78 77 77 61 70 69 74 73 71 72 72 73 75 77 79 81 82
97 91 94 97 99 99 99 104 103 102 99 95 97 92 97 97 97 94 92 88 85 83 83 85 85 83 84 79 80 78 76 75 78 75 69 74 76 76 76 78 80 80 82 83 83 86 88
100 102 103 104 107 106 108 111 112 107 102 100 100 98 97 97 96 93 94 92 91 92 92 87 89 87 89 87 81 80 75 73 70 77 79 67 75 77 81 81 83 84 85 85 86 87 88
111 111 108 110 111 116 118 116 111 107 106 101 102 102 102 103 103 100 102 102 101 99 102 92 94 91 92 91 88 85 79 74 81 82 84 82 77 72 80 82 83 86 85 86 88 90 92
118 117 115 115 117 119 118 118 114 109 108 104 105 107 101 110 111 106 106 106 108 109 117 103 99 96 96 95 96 92 93 87 88 89 85 84 81 80 76 78 83 87 85 85 86 88 88
119 116 117 119 120 117 119 117 113 114 112 111 110 112 111 115 115 113 114 115 116 118 119 108 105 102 106 101 105 105 94 91 93 90 86 86 83 85 82 79 81 83 84 86 87 88 88
122 125 121 127 125 125 123 121 119 119 116 117 118 119 118 122 124 121 119 121 123 121 116 115 110 109 109 107 108 106 98 91 91 90 87 88 84 85 86 85 84 84 85 87 87 87 85
115 118 119 121 121 121 119 119 120 122 124 123 126 126 122 125 126 127 129 130 129 120 125 119 118 115 113 113 107 105 99 93 92 91 90 86 85 82 83 86 81 80 85 88 85 85 84
117 118 119 120 118 119 117 119 119 120 120 122 125 126 120 124 130 135 137 130 126 126 124 123 123 119 119 115 106 104 99 91 89 89 89 84 79 79 82 86 88 85 86 88 85 84 84
115 114 112 109 107 103 101 101 102 108 112 117 116 116 109 110 115 123 125 109 103 111 118 121 111 111 108 109 101 98 94 86 88 85 84 82 79 78 83 85 84 85 87 89 90 87 82
103 100 98 91 86 84 85 83 82 82 84 90 91 90 86 87 91 98 92 79 83 88 89 92 91 92 86 90 86 86 84 82 81 83 78 76 76 75 77 75 82 86 89 90 87 84 78
92 86 84 81 77 77 74 69 68 69 72 76 77 75 66 66 70 65 55 54 54 61 64 66 62 62 62 62 63 67 73 75 72 73 76 73 72 72 76 80 87 87 87 84 81 75 70
83 76 72 68 65 67 58 55 60 61 64 61 58 60 55 56 54 48 48 48 52 56 53 54 50 47 50 50 49 46 54 60 56 61 68 71 76 79 78 85 83 86 81 77 71 64 65
75 69 64 56 56 56 47 50 51 53 47 47 50 46 45 46 42 41 44 47 45 48 47 45 43 44 45 42 40 39 39 42 46 46 52 58 60 65 75 74 69 66 66 61 60 60 59
64 58 56 49 49 45 46 44 46 45 39 38 39 38 42 41 41 46 45 42 42 38 37 33 32 36 36 31 22 20 29 34 45 52 57 56 58 58 58 56 56 56 51 54 58 60 56
55 50 48 44 44 44 43 45 42 36 35 35 37 37 38 41 40 42 39 34 31 28 24 23 22 25 30 24 23 26 36 51 53 51 47 42 46 46 48 48 45 43 47 54 59 60 56
49 47 44 44 46 48 46 44 39 34 33 35 30 31 34 35 33 33 33 34 33 28 28 27 21 23 32 30 32 34 35 36 42 44 46 47 47 45 38 35 37 47 53 56 59 59 54
47 45 45 48 52 50 49 43 36 32 27 25 24 27 31 32 36 37 37 36 34 33 32 33 34 33 31 39 39 40 37 44 44 43 40 39 37 34 35 34 41 51 55 56 57 56 50
45 45 49 54 55 54 49 40 37 30 22 23 25 28 36 39 41 42 39 39 36 35 33 37 41 40 44 44 47 47 41 35 35 32 32 34 35 37 34 39 46 52 53 56 55 52 45
46 50 55 59 59 55 49 45 43 34 25 25 27 35 36 36 37 43 38 33 29 28 23 28 38 38 36 34 35 34 34 33 31 32 34 35 35 32 37 46 48 52 53 57 55 51 42
50 56 62 63 61 58 50 51 48 38 34 29 37 38 38 38 34 33 33 31 27 20 20 25 34 31 29 30 33 32 31 31 33 35 34 33 30 36 45 51 52 53 55 57 54 51 41
56 61 66 65 63 58 53 53 46 39 33 34 40 41 37 36 35 32 30 29 29 25 23 28 28 26 28 32 34 32 31 34 34 33 33 29 35 43 50 55 55 53 57 56 55 51 43
60 66 69 68 65 61 56 54 45 42 35 35 30 35 38 38 35 33 34 32 30 24 20 21 28 29 29 32 33 33 36 36 35 34 31 32 42 49 53 58 55 56 58 55 55 50 43

GFSGBSN_250_spd_135.txt.gz
Wind_Speed
68 66 68 69 65 66 66 63 61 61 63 65 66 67 62 61 65 64 67 65 68 67 63 62 63 61 63 61 63 62 60 60 55 45 38 31 31 35 39 39 42 45 47 48 48 55 55
71 71 68 69 70 69 69 71 68 74 74 73 75 70 70 68 67 62 62 63 61 64 65 63 64 66 63 61 67 61 62 60 58 45 40 37 34 35 39 43 44 47 48 51 50 52 56
76 74 72 74 75 75 76 77 80 84 82 82 78 73 69 67 62 62 61 63 65 68 67 65 66 65 64 64 67 67 63 62 57 55 43 41 44 42 45 46 48 50 50 54 54 54 58
77 79 81 80 78 79 83 84 84 85 87 83 82 79 75 72 70 66 65 67 67 68 71 69 72 72 68 67 66 66 59 60 60 57 56 45 44 48 47 49 52 54 55 58 58 57 58
84 87 87 79 76 81 78 82 84 86 85 86 83 81 79 76 75 75 72 72 71 71 75 75 76 75 74 69 63 63 62 59 60 59 62 63 62 51 50 54 56 53 56 61 64 66 64
87 91 90 86 83 81 83 82 78 79 79 84 88 84 78 76 75 72 72 75 73 77 77 79 78 75 75 69 66 66 63 64 63 60 64 65 63 61 55 49 61 66 62 63 63 66 68
99 91 94 85 83 85 85 84 77 84 81 85 87 90 86 83 85 84 80 81 82 85 87 87 85 80 78 76 72 70 70 67 67 67 66 67 66 68 68 60 58 56 68 72 75 74 76
92 89 90 92 85 89 87 86 86 86 88 88 93 92 93 90 94 91 92 93 95 93 87 87 86 83 84 82 77 72 72 68 69 68 69 71 66 70 74 74 69 58 59 68 77 81 81
88 88 90 89 87 86 91 87 94 90 92 98 96 94 97 102 102 98 101 99 104 103 94 84 87 84 84 85 80 76 77 75 75 72 74 74 74 72 67 71 75 77 71 62 71 79 83
96 96 96 94 99 100 98 95 95 102 102 100 101 102 101 105 107 108 104 109 107 104 101 86 89 84 87 89 86 86 89 85 82 82 83 78 74 74 73 74 76 79 82 78 70 68 73
109 110 112 108 110 105 103 107 110 106 108 110 107 110 107 107 110 113 114 114 112 110 109 95 90 90 92 94 93 90 91 90 87 85 89 83 81 81 79 77 79 82 82 83 80 75 72
122 119 119 116 113 111 112 113 113 115 114 116 113 112 111 112 116 117 118 116 115 116 109 98 94 94 94 97 99 100 98 95 93 92 91 87 86 87 85 84 83 84 88 84 86 84 78
120 119 121 122 121 118 120 120 120 121 120 121 120 118 113 112 120 120 121 120 121 120 110 104 102 101 102 101 103 105 103 101 99 98 100 98 92 89 84 86 83 88 87 88 85 83 79
127 128 128 127 126 123 123 124 123 123 124 124 125 120 121 117 124 128 128 130 128 117 115 113 112 110 109 108 106 110 109 106 105 108 109 101 96 93 87 83 81 84 89 88 88 84 76
129 129 127 127 123 122 122 124 123 126 127 128 124 125 122 125 128 131 132 135 121 118 117 118 121 115 113 113 116 114 113 113 111 114 110 106 96 93 90 83 82 83 83 84 82 78 76
120 120 118 118 118 119 119 121 123 123 121 122 123 123 113 116 122 122 124 119 113 115 116 121 116 116 116 114 114 111 109 102 107 105 99 97 92 88 81 72 77 81 77 78 78 76 77
106 105 107 108 110 109 110 115 117 115 116 112 109 108 102 103 109 106 99 93 101 106 107 107 104 108 103 103 99 101 98 96 92 90 91 85 80 75 70 64 75 75 72 71 74 70 63
109 106 107 107 106 105 106 108 106 104 103 101 96 91 76 83 90 82 68 68 74 79 77 77 81 79 75 81 77 75 74 75 74 72 75 73 67 64 60 65 70 64 63 63 55 63 72
106 105 105 105 104 101 100 95 88 81 86 83 76 71 62 68 64 57 56 58 62 61 60 62 59 61 60 56 58 57 58 61 58 59 58 56 54 54 50 51 50 49 58 56 63 67 69
95 93 92 91 86 84 83 73 69 67 65 61 62 59 52 49 53 46 47 48 53 56 57 55 50 52 50 47 47 46 42 39 35 34 39 40 37 37 35 36 51 56 58 65 63 62 68
87 87 85 80 74 70 63 59 58 54 54 52 49 44 44 43 45 43 45 48 48 47 46 45 47 45 39 42 38 40 39 32 32 30 26 26 35 26 39 46 52 54 47 49 58 58 54
79 77 75 71 67 64 55 59 47 51 47 44 44 42 42 42 41 40 40 40 45 43 42 41 38 40 32 35 37 35 28 29 29 28 31 39 40 42 43 45 42 45 49 49 46 41 47
74 71 67 62 56 51 55 49 48 48 47 45 45 43 42 32 33 31 30 37 41 43 42 37 32 27 29 28 29 26 25 26 28 33 35 31 31 41 42 43 45 44 40 38 35 44 50
66 61 57 53 48 52 50 48 47 45 43 42 40 35 27 25 24 28 31 32 35 37 34 29 29 30 33 32 31 28 26 27 33 35 32 34 39 47 44 36 38 43 34 33 39 47 54
57 53 50 49 50 49 48 49 44 43 40 35 32 28 26 28 27 27 29 32 33 31 33 32 36 36 37 34 29 29 31 30 36 36 36 38 37 34 36 37 30 33 33 37 47 52 55
51 50 51 52 49 48 50 48 43 40 34 31 29 32 33 35 40 40 42 41 40 39 33 36 33 33 44 40 37 33 33 34 31 33 33 36 37 34 25 26 29 33 32 41 49 55 58
47 48 50 48 49 49 51 45 42 36 34 30 28 33 39 43 41 42 39 40 39 37 41 39 36 33 33 37 42 34 34 34 32 33 29 28 25 27 29 29 28 32 35 47 53 58 58
47 48 47 48 50 52 50 46 42 40 32 33 37 29 33 39 33 40 43 39 35 31 24 27 32 35 34 35 35 37 32 29 29 29 26 25 27 29 30 28 30 32 44 52 56 56 58
47 47 48 51 54 55 51 49 46 41 37 38 39 36 35 33 37 41 39 35 32 27 21 19 20 23 29 30 29 26 26 26 24 25 25 27 29 31 30 33 32 43 50 55 57 58 58

GFSGBSN_250_spd_138.txt.gz
Wind_Speed
71 78 80 78 77 68 62 63 60 60 59 56 54 54 55 54 56 55 56 58 54 56 57 59 58 56 56 60 58 56 59 59 59 58 57 54 55 52 40 40 37 34 38 40 42 40 43
80 80 79 75 73 66 64 62 63 62 60 62 61 59 61 64 64 67 68 65 65 62 62 58 57 57 56 59 59 57 60 61 61 61 61 60 56 52 53 40 40 33 40 40 43 47 46
89 88 83 81 77 71 67 68 67 66 64 64 69 70 70 71 70 73 73 71 69 66 62 54 58 54 61 61 59 58 59 65 66 65 63 61 54 51 50 43 44 43 44 46 47 47 49
90 84 77 82 79 76 73 71 69 70 73 71 72 71 71 77 78 77 78 74 71 68 67 62 58 59 59 61 60 60 63 62 67 67 67 59 58 55 52 53 48 47 49 51 49 50 53
94 83 81 79 76 78 77 76 78 78 75 73 70 71 74 72 74 75 73 72 73 71 72 72 70 67 59 57 59 60 63 66 66 66 69 64 59 61 56 53 53 54 52 48 53 50 52
88 86 86 81 83 80 81 83 82 83 82 84 78 75 75 77 76 72 68 72 72 71 70 74 66 65 61 60 61 62 65 66 71 69 68 69 64 60 61 58 55 58 59 58 58 58 55
94 93 88 90 84 85 87 87 87 91 92 83 79 76 74 77 75 71 71 74 75 75 75 76 73 69 69 72 71 73 72 77 76 73 74 72 72 67 65 61 61 61 63 65 65 63 60
93 92 93 91 91 94 94 89 89 87 94 86 83 80 81 79 81 75 79 79 80 81 81 82 78 76 80 81 75 74 79 78 77 77 75 74 70 71 67 66 65 63 63 64 65 71 70
103 100 97 96 99 98 94 91 91 93 92 90 85 83 85 85 86 84 84 86 84 88 87 84 85 81 87 90 85 81 82 79 82 80 80 78 75 76 76 74 71 71 72 71 69 68 73
102 102 103 104 103 98 98 94 97 91 90 88 83 84 84 84 89 94 93 93 91 95 91 86 89 87 92 93 90 88 84 85 82 84 84 82 82 84 83 80 79 76 79 78 75 74 76
107 104 104 105 103 101 95 96 96 99 93 96 96 94 93 97 100 99 101 99 99 101 96 91 93 93 96 97 96 92 87 86 87 87 90 86 89 90 90 86 85 83 81 78 79 80 79
111 110 109 105 106 103 101 102 105 103 105 104 107 108 107 111 106 107 108 106 111 109 97 101 99 99 100 100 103 104 101 100 95 93 92 90 94 92 89 88 89 87 87 85 86 84 78
117 117 116 112 110 117 114 112 114 113 115 115 112 114 113 114 113 109 110 112 115 111 106 106 108 107 107 108 107 108 106 105 103 101 100 99 94 94 96 92 91 92 94 93 88 87 84
120 120 118 120 115 113 113 115 115 120 123 122 123 117 115 112 118 120 121 122 120 110 110 111 113 113 112 114 114 112 111 108 109 110 107 104 102 101 100 95 96 93 94 93 88 87 81
124 121 122 121 121 119 119 120 118 120 118 119 121 122 121 121 125 128 127 125 117 113 112 115 119 119 114 117 118 117 116 112 114 117 109 107 104 104 103 98 103 98 91 86 83 77 75
127 125 124 123 122 120 120 121 123 124 125 126 126 126 125 128 127 127 124 113 108 112 118 116 120 121 111 113 117 116 111 113 110 105 103 100 98 105 103 101 97 93 87 79 73 71 72
123 123 122 121 121 122 121 122 126 126 129 128 126 125 123 125 120 110 102 101 105 110 111 112 108 105 104 103 103 104 102 101 100 100 101 102 95 97 96 93 87 81 74 68 67 65 65
114 112 111 112 113 115 116 116 119 121 125 122 121 111 107 104 99 90 87 95 90 94 103 104 100 91 88 89 80 80 85 86 87 87 86 85 84 82 80 79 75 68 62 61 60 58 60
110 109 107 107 106 102 103 106 108 111 112 108 107 104 96 87 86 91 85 82 81 80 84 85 80 73 70 65 61 61 65 67 69 68 67 68 65 63 64 62 57 57 55 52 52 54 52
101 103 103 104 104 103 102 102 104 106 108 104 100 90 82 76 73 76 74 69 69 73 73 71 68 61 55 55 56 55 57 59 56 54 54 50 45 45 47 48 45 44 43 43 45 37 44
94 96 95 98 98 98 98 100 101 102 100 90 83 65 61 58 61 65 59 57 58 62 62 58 53 49 53 53 52 50 52 48 46 39 38 33 30 30 30 29 31 30 34 34 28 43 47
86 86 87 85 87 93 92 88 84 83 78 72 59 53 55 53 51 49 46 46 49 53 50 48 42 47 48 45 47 45 43 38 33 32 31 29 26 26 24 18 21 21 19 33 43 46 50
79 77 76 76 77 78 80 77 73 70 61 58 50 48 53 50 47 43 46 42 41 44 42 40 42 38 33 38 38 35 29 30 29 27 28 27 30 28 29 30 19 26 31 42 45 45 44
74 71 70 69 71 69 69 67 61 59 53 52 49 50 50 47 43 41 43 37 36 39 37 36 32 33 38 34 31 30 32 29 29 30 31 28 28 31 35 28 28 36 38 40 39 38 33
68 68 66 65 64 63 60 56 52 50 53 50 47 49 43 36 30 31 45 35 30 28 28 29 30 32 31 33 33 33 32 31 33 34 37 34 37 30 26 24 30 34 34 32 29 25 28
63 62 62 60 58 55 53 50 50 53 50 48 44 40 34 33 33 34 37 31 30 31 28 27 27 26 27 33 35 34 33 33 30 27 31 27 27 27 25 25 27 26 27 21 26 29 33
58 57 54 53 51 50 49 49 52 50 47 40 38 36 35 36 34 33 29 31 28 24 21 21 24 27 33 36 38 36 32 25 24 24 26 26 26 26 24 23 26 19 21 27 26 32 40
53 51 50 49 49 49 50 51 48 44 39 38 37 37 36 35 32 29 30 28 24 25 26 30 30 34 36 37 32 33 29 28 27 26 24 24 23 20 20 21 23 24 26 26 29 38 44
45 47 47 47 47 49 49 47 43 39 39 39 41 39 35 32 31 38 34 33 33 35 33 32 29 26 30 36 32 29 25 26 27 28 25 24 18 19 20 21 25 28 29 33 38 45 51